AKST,Max TemperatureF,Mean TemperatureF,Min TemperatureF,Max Dew PointF,MeanDew PointF,Min DewpointF,Max Humidity, Mean Humidity, Min Humidity, Max Sea Level PressureIn, Mean Sea Level PressureIn, Min Sea Level PressureIn, Max VisibilityMiles, Mean VisibilityMiles, Min VisibilityMiles, Max Wind SpeedMPH, Mean Wind SpeedMPH, Max Gust SpeedMPH,PrecipitationIn, CloudCover, Events, WindDirDegrees
2013-2-1,34,33,32,34,31,30,100,93,87,30.17,30.14,30.08,10,3,1,4,1,,0.05,8,Rain-Snow,41
2013-2-2,39,36,32,36,32,30,96,90,86,30.06,29.92,29.78,10,5,1,9,1,21,0.27,8,Rain-Snow,101
2013-2-3,41,38,35,35,33,31,93,82,73,29.78,29.62,29.54,10,10,10,28,10,36,0.05,7,Rain,186
2013-2-4,37,34,28,32,29,23,93,80,73,29.84,29.80,29.70,10,10,10,23,13,31,0.00,6,,202
2013-2-5,36,34,33,21,18,17,61,51,48,29.68,29.59,29.55,10,10,9,26,16,37,0.00,3,Snow,35
2013-2-6,35,32,30,29,22,17,93,65,50,29.69,29.65,29.61,10,8,2,17,9,24,0.00,7,Snow,46
2013-2-7,37,34,30,32,30,27,100,87,65,29.78,29.71,29.67,10,5,1,33,4,44,0.14,7,Snow,201
2013-2-8,39,38,37,36,34,30,87,82,73,30.05,29.82,29.65,10,10,10,28,23,39,0.00,7,Snow,204
2013-2-9,43,41,39,36,34,32,87,76,70,30.07,29.96,29.78,10,10,5,34,21,53,0.08,8,Rain,203
2013-2-10,42,40,37,36,33,31,82,74,67,29.80,29.74,29.67,10,9,3,40,35,54,0.07,8,Rain,211
2013-2-11,42,40,37,32,31,29,79,73,65,29.81,29.75,29.67,10,10,10,34,26,48,0.00,5,Rain,206
2013-2-12,37,32,27,30,24,19,85,73,59,30.12,29.88,29.70,10,10,9,15,7,18,0.00,3,Rain-Snow,173
2013-2-13,36,32,28,31,28,21,100,90,72,30.23,30.18,30.09,10,4,1,13,1,22,0.07,8,Rain-Snow,344
2013-2-14,44,38,33,34,32,31,93,79,65,30.09,29.91,29.80,10,9,3,37,14,45,0.12,7,Rain-Snow,196
2013-2-15,41,36,32,37,33,30,100,89,79,29.83,29.71,29.64,10,5,1,24,4,32,0.48,8,Rain-Snow,204
2013-2-16,39,38,37,35,30,25,86,73,60,30.09,29.98,29.85,10,10,10,31,19,37,0.01,7,Rain,204
2013-2-17,37,34,32,32,29,25,96,79,62,30.06,29.84,29.69,10,8,2,25,14,33,0.01,8,Snow,208
2013-2-18,34,33,32,31,30,29,96,90,85,29.85,29.76,29.69,10,7,2,4,0,,0.02,8,Snow,195
2013-2-19,39,34,30,32,30,28,100,88,73,29.86,29.77,29.52,10,6,1,22,3,34,0.06,8,Rain-Snow,200
2013-2-20,39,37,35,32,31,30,81,76,70,29.49,29.33,29.27,10,10,10,32,20,41,0.01,8,Rain,203
2013-2-21,36,34,32,33,31,30,96,91,79,29.34,29.26,29.10,10,9,2,13,1,,0.05,8,Rain-Snow,23
2013-2-22,41,36,32,32,28,23,96,77,53,29.52,29.20,28.98,10,9,1,13,4,18,0.01,7,,7
2013-2-23,37,35,33,32,29,25,93,76,64,29.64,29.57,29.50,10,10,5,34,19,41,0.00,8,Snow,211
2013-2-24,37,35,33,31,29,27,89,77,67,29.83,29.72,29.63,10,10,4,26,13,32,0.00,5,Snow,200
2013-2-25,37,32,28,31,27,21,89,78,66,29.98,29.93,29.84,10,10,10,8,4,,0.00,7,,59
2013-2-26,39,34,30,24,17,13,76,46,36,29.89,29.73,29.67,10,10,10,21,10,32,0.00,8,,26
2013-2-27,37,34,30,31,28,18,96,82,48,29.69,29.64,29.55,10,6,1,14,3,,0.06,8,Snow,129
2013-2-28,39,36,32,34,32,30,100,84,68,29.72,29.60,29.44,10,8,1,32,7,47,0.17,8,Rain-Snow,203